Home > Time Zones > World Clock > Weather > Serbia > Niš > Past weeks

Flag for Serbia Weather past 2 weeks in Niš, Serbia

Now
75 °F

Light rain. Scattered clouds.


Feels Like: 77 °F
Forecast: 63 / 80 °F
Wind: 5 mph from Southwest

Location: Nis Airport

Current Time: Sep 20, 2014 at 6:26:48 PM

Latest Report: Sep 20, 2014 at 3:30 PM


Visibility: N/A

Pressure: 30.07 "Hg

Humidity: 65%

Dew point: 63 °F

Location of NišLocation

Historic Weather in Niš — Graph

°F

Niš temperature yesterday

Maximum temperature yesterday: 81 °F (at 4:00 PM)
Minimum temperature yesterday: 52 °F (at 5:00 AM)
Average temperature yesterday: 65 °F

Past Weeks' High & Low Weather Summary

 TemperatureHumidityPressure
High84 °F (Sep 13, 1:30 PM)100% (Sep 8, 6:30 AM)30.21 "Hg (Sep 8, 6:30 AM)
Low48 °F (Sep 18, 5:30 AM)39% (Sep 18, 3:30 PM)29.83 "Hg (Sep 6, 6:00 AM)
Average67 °F76%29.99 "Hg
* Reported Sep 5 3:00 PM — Sep 20 3:00 PM, Niš, Weather by CustomWeather, © 2014

Note: Actual official high and low records may vary slightly from our data, if they occured in-between our weather recording intervals... More about our weather records

Advertising

Niš weather history for previous 24 hours

 ConditionsComfort  
Time TempWeatherWind HumidityBarometerVisibility
3:00 PM
Sep 20
77 °FPassing clouds.3 mph57%30.04 "HgN/A
2:30 PM77 °FPassing clouds.5 mph57%30.04 "HgN/A
2:00 PM77 °FPassing clouds.5 mph57%30.04 "HgN/A
1:30 PM77 °FPassing clouds.3 mph54%30.07 "HgN/A
1:00 PM77 °FPassing clouds.6 mph54%30.07 "HgN/A
12:30 PM77 °FPassing clouds.6 mph54%30.09 "HgN/A
12:00 PM77 °FPassing clouds.5 mph51%30.09 "HgN/A
11:30 AM75 °FPassing clouds.5 mph54%30.09 "HgN/A
11:00 AM73 °FSunny.2 mph61%30.09 "Hg10 mi
10:30 AM72 °FSunny.1 mph61%30.12 "Hg10 mi
10:00 AM72 °FSunny.2 mph61%30.12 "Hg10 mi
9:30 AM68 °FPassing clouds.3 mph69%30.12 "HgN/A
9:00 AM66 °FSunny.2 mph73%30.15 "Hg10 mi
8:30 AM66 °FSunny.2 mph73%30.15 "Hg10 mi
8:00 AM64 °FSunny.2 mph73%30.15 "Hg10 mi
7:30 AM61 °FPassing clouds.3 mph83%30.15 "HgN/A
7:00 AM59 °FClear.2 mph94%30.15 "Hg10 mi
6:30 AM59 °FClear.2 mph94%30.15 "Hg10 mi
6:00 AM57 °FClear.1 mph100%30.12 "Hg10 mi
5:30 AM59 °FClear.2 mph88%30.12 "Hg10 mi
5:00 AM63 °FPassing clouds.3 mph73%30.12 "HgN/A
4:30 AM63 °FPassing clouds.3 mph73%30.12 "HgN/A
4:00 AM61 °FClear.1 mph83%30.12 "Hg10 mi
3:00 AM63 °FClear.1 mph83%30.12 "Hg10 mi
2:30 AM63 °FPassing clouds.5 mph77%30.12 "HgN/A
2:00 AM63 °FPassing clouds.3 mph77%30.12 "HgN/A
1:30 AM63 °FPassing clouds.5 mph77%30.12 "HgN/A
1:00 AM63 °FPassing clouds.8 mph77%30.12 "HgN/A
12:30 AM63 °FClear.7 mph83%30.12 "Hg10 mi
12:00 AM64 °FClear.9 mph78%30.12 "Hg10 mi
11:30 PM
Sep 19
64 °FClear.7 mph78%30.12 "Hg10 mi
11:00 PM64 °FClear.3 mph78%30.12 "Hg10 mi
10:30 PM64 °FClear.2 mph78%30.12 "Hg10 mi
10:00 PM66 °FClear.2 mph73%30.12 "Hg10 mi
9:30 PM66 °FPassing clouds.3 mph73%30.12 "HgN/A
9:00 PM68 °FClear.6 mph69%30.12 "Hg10 mi
8:30 PM68 °FClear.8 mph73%30.12 "Hg10 mi
8:00 PM70 °FClear.6 mph69%30.12 "Hg10 mi
7:30 PM70 °FSunny.6 mph69%30.12 "Hg10 mi
7:00 PM72 °FSunny.7 mph61%30.12 "Hg10 mi
6:30 PM75 °FSunny.2 mph54%30.12 "Hg10 mi
6:00 PM77 °FSunny.2 mph51%30.12 "Hg10 mi
Weather by CustomWeather, © 2014

See weather overviewHow to use our weather pages